Tracy, MN

10:03 PM CST on February 17, 2018 (GMT -0600)
Tracy

Weather History for KTKC - October, 2013

Change the Weather History Date:

Sunday, October 13, 2013

  Actual Average (KMML) Record (KMML)
Temperature  
Mean Temperature 49 °F -  
Max Temperature 62 °F 61 °F 86 °F (1975)
Min Temperature 36 °F 37 °F 22 °F (1979)
Degree Days  
Heating Degree Days 16    
Moisture  
Dew Point 32 °F    
Average Humidity 54    
Maximum Humidity 79    
Minimum Humidity 31    
Precipitation  
Precipitation 0.00 in - - ()
Sea Level Pressure  
Sea Level Pressure 30.35 in    
Wind  
Wind Speed 0 mph (SE)    
Max Wind Speed 8 mph    
Max Gust Speed -    
Visibility 10 miles    
Events      
Averages and records for this station are not official NWS values.
T = Trace of Precipitation, MM = Missing Value Source: NWS Daily Summary

Daily Weather History Graph

Daily Weather History Graph

Search for Another Location

Airport or City:

Trip Planner

Search our weather history database for the weather conditions in past years. The results will help you decide how hot, cold, wet, or windy it might be!

Date:

Astronomy

Oct. 13, 2013 Rise Set
Actual Time 7:35 AM CDT 6:41 PM CDT
Civil Twilight 7:05 AM CDT 7:10 PM CDT
Nautical Twilight 6:32 AM CDT 7:43 PM CDT
Astronomical Twilight 5:58 AM CDT 8:17 PM CDT
Moon 3:43 PM CDT (10/13) 1:34 AM CDT (10/13)
Length of Visible Light 12h 04m
Length of Day
11h 06m
Waxing Gibbous, 69% of the Moon is Illuminated
Oct 13
Waxing Gibbous
Oct 18
Full
Oct 26
Last Quarter
Nov 3
New
Nov 9
First Quarter

Hourly Weather History & Observations

Time (CDT) Temp. Dew Point Humidity Pressure Visibility Wind Dir Wind Speed Gust Speed Precip Events Conditions
12:18 AM 44.8 °F 31.1 °F 59% 30.24 in 10.0 mi Calm Calm - N/A   Clear
12:37 AM 43.7 °F 31.1 °F 61% 30.26 in 10.0 mi Calm Calm - N/A   Clear
12:58 AM 43.9 °F 31.1 °F 61% 30.26 in 10.0 mi Calm Calm - N/A   Clear
1:18 AM 42.8 °F 31.1 °F 63% 30.27 in 10.0 mi Calm Calm - N/A   Clear
1:37 AM 42.8 °F 30.9 °F 63% 30.27 in 10.0 mi Calm Calm - N/A   Clear
1:58 AM 43.0 °F 30.7 °F 62% 30.27 in 10.0 mi Calm Calm - N/A   Clear
2:17 AM 41.5 °F 30.6 °F 65% 30.28 in 10.0 mi Calm Calm - N/A   Clear
2:37 AM 40.1 °F 30.6 °F 69% 30.29 in 10.0 mi Calm Calm - N/A   Clear
2:57 AM 40.6 °F 30.6 °F 67% 30.30 in 10.0 mi Calm Calm - N/A   Clear
3:18 AM 39.2 °F 30.6 °F 71% 30.31 in 10.0 mi Calm Calm - N/A   Clear
3:37 AM 39.4 °F 31.3 °F 73% 30.31 in 10.0 mi Calm Calm - N/A   Clear
3:57 AM 39.2 °F 31.1 °F 73% 30.31 in 10.0 mi Calm Calm - N/A   Clear
4:17 AM 39.2 °F 31.1 °F 73% 30.33 in 10.0 mi Calm Calm - N/A   Clear
4:38 AM 39.2 °F 30.9 °F 72% 30.33 in 10.0 mi Calm Calm - N/A   Clear
4:58 AM 39.9 °F 30.9 °F 70% 30.33 in 10.0 mi Calm Calm - N/A   Clear
5:17 AM 39.2 °F 30.9 °F 72% 30.33 in 10.0 mi Calm Calm - N/A   Clear
5:38 AM 38.7 °F 30.9 °F 74% 30.34 in 10.0 mi Calm Calm - N/A   Clear
5:57 AM 38.5 °F 30.9 °F 74% 30.35 in 10.0 mi Calm Calm - N/A   Clear
6:17 AM 37.8 °F 31.1 °F 77% 30.35 in 10.0 mi Calm Calm - N/A   Clear
6:37 AM 37.4 °F 30.7 °F 77% 30.35 in 10.0 mi Calm Calm - N/A   Clear
6:57 AM 37.4 °F 30.7 °F 77% 30.36 in 10.0 mi Calm Calm - N/A   Clear
7:18 AM 37.0 °F 30.6 °F 77% 30.37 in 10.0 mi Calm Calm - N/A   Clear
7:38 AM 37.6 °F 30.7 °F 76% 30.38 in 10.0 mi Calm Calm - N/A   Clear
7:58 AM 36.9 °F 30.7 °F 79% 30.38 in 10.0 mi Calm Calm - N/A   Clear
8:18 AM 38.3 °F 31.3 °F 76% 30.39 in 10.0 mi Calm Calm - N/A   Clear
8:38 AM 41.0 °F 32.4 °F 71% 30.40 in 10.0 mi Calm Calm - N/A   Clear
8:58 AM 43.5 °F 33.3 °F 67% 30.40 in 10.0 mi Calm Calm - N/A   Clear
9:18 AM 46.6 °F 34.5 °F 63% 30.41 in 10.0 mi Calm Calm - N/A   Clear
9:38 AM 49.5 °F 34.7 °F 57% 30.41 in 10.0 mi Calm Calm - N/A   Clear
9:58 AM 51.3 °F 35.1 °F 54% 30.42 in 10.0 mi Calm Calm - N/A   Clear
10:18 AM 53.6 °F 33.4 °F 46% 30.42 in 10.0 mi Calm Calm - N/A   Clear
10:38 AM 54.7 °F 32.4 °F 43% 30.42 in 10.0 mi Calm Calm - N/A   Clear
10:58 AM 55.6 °F 32.0 °F 41% 30.42 in 10.0 mi Calm Calm - N/A   Clear
11:17 AM 55.9 °F 31.1 °F 39% 30.42 in 10.0 mi Calm Calm - N/A   Clear
11:37 AM 56.8 °F 31.5 °F 38% 30.42 in 10.0 mi Calm Calm - N/A   Clear
11:57 AM 57.6 °F 30.6 °F 36% 30.42 in 10.0 mi Calm Calm - N/A   Clear
12:17 PM 58.5 °F 30.9 °F 35% 30.41 in 10.0 mi Calm Calm - N/A   Clear
12:37 PM 59.0 °F 31.6 °F 36% 30.42 in 10.0 mi Calm Calm - N/A   Clear
12:58 PM 59.4 °F 30.9 °F 34% 30.41 in 10.0 mi Calm Calm - N/A   Clear
1:18 PM 60.4 °F 31.3 °F 33% 30.40 in 10.0 mi Calm Calm - N/A   Clear
1:38 PM 60.1 °F 31.1 °F 33% 30.39 in 10.0 mi Calm Calm - N/A   Clear
1:58 PM 60.6 °F 31.1 °F 33% 30.38 in 10.0 mi Calm Calm - N/A   Clear
2:18 PM 61.5 °F 31.8 °F 33% 30.38 in 10.0 mi Calm Calm - N/A   Clear
2:38 PM 61.7 °F 32.0 °F 33% 30.37 in 10.0 mi Calm Calm - N/A   Clear
2:58 PM 61.7 °F 31.5 °F 32% 30.36 in 10.0 mi Calm Calm - N/A   Clear
3:18 PM 62.4 °F 31.6 °F 31% 30.36 in 10.0 mi Calm Calm - N/A   Clear
3:37 PM 62.6 °F 32.4 °F 32% 30.36 in 10.0 mi Calm Calm - N/A   Clear
3:58 PM 62.2 °F 31.8 °F 32% 30.36 in 10.0 mi Calm Calm - N/A   Clear
4:18 PM 62.6 °F 32.0 °F 32% 30.35 in 10.0 mi Calm Calm - N/A   Clear
4:37 PM 62.4 °F 32.2 °F 32% 30.35 in 10.0 mi Calm Calm - N/A   Clear
4:58 PM 62.1 °F 32.0 °F 32% 30.35 in 10.0 mi ESE 5.8 mph - N/A   Clear
5:18 PM 61.7 °F 32.2 °F 33% 30.35 in 10.0 mi Calm Calm - N/A   Clear
5:38 PM 61.0 °F 32.9 °F 35% 30.35 in 10.0 mi Calm Calm - N/A   Clear
5:57 PM 60.1 °F 32.7 °F 36% 30.35 in 10.0 mi ESE 6.9 mph - N/A   Clear
6:18 PM 57.9 °F 33.8 °F 40% 30.35 in 10.0 mi Calm Calm - N/A   Clear
6:37 PM 55.2 °F 34.2 °F 45% 30.34 in 10.0 mi Calm Calm - N/A   Clear
6:58 PM 53.2 °F 33.6 °F 47% 30.34 in 10.0 mi Calm Calm - N/A   Clear
7:17 PM 51.8 °F 34.0 °F 51% 30.34 in 10.0 mi Calm Calm - N/A   Clear
7:37 PM 51.8 °F 34.0 °F 51% 30.33 in 10.0 mi Calm Calm - N/A   Clear
7:58 PM 52.2 °F 33.8 °F 50% 30.34 in 10.0 mi Calm Calm - N/A   Clear
8:18 PM 50.0 °F 34.0 °F 54% 30.34 in 10.0 mi Calm Calm - N/A   Clear
8:38 PM 48.7 °F 34.2 °F 57% 30.34 in 10.0 mi Calm Calm - N/A   Clear
8:57 PM 48.9 °F 34.2 °F 57% 30.34 in 10.0 mi SE 8.1 mph - N/A   Clear
9:17 PM 49.8 °F 34.0 °F 55% 30.34 in 10.0 mi SE 8.1 mph - N/A   Clear
9:37 PM 49.6 °F 33.4 °F 54% 30.34 in 10.0 mi Calm Calm - N/A   Clear
9:58 PM 50.2 °F 33.3 °F 52% 30.34 in 10.0 mi SE 8.1 mph - N/A   Clear
10:18 PM 49.5 °F 32.9 °F 53% 30.35 in 10.0 mi Calm Calm - N/A   Clear
10:38 PM 46.8 °F 33.1 °F 59% 30.35 in 10.0 mi Calm Calm - N/A   Clear
10:58 PM 46.6 °F 33.4 °F 60% 30.36 in 10.0 mi Calm Calm - N/A   Clear
11:18 PM 47.1 °F 33.8 °F 60% 30.35 in 10.0 mi Calm Calm - N/A   Scattered Clouds
11:38 PM 47.1 °F 33.8 °F 60% 30.35 in 10.0 mi SSE 4.6 mph - N/A   Mostly Cloudy
11:58 PM 47.3 °F 33.8 °F 59% 30.35 in 10.0 mi Calm Calm - N/A   Mostly Cloudy